{"data":{"norad_id":68876,"epoch":"2026-05-24T21:14:46.845888Z","epoch_age_seconds":78762,"freshness":"FRESH","line1":"1 68876U 26095N   26144.88526442  .00023531  00000+0  63956-3 0  9998","line2":"2 68876  51.8777 355.1072 0006257 201.6613 158.4110 15.37426759  4142","mean_motion":15.37426759,"eccentricity":0.0006257,"inclination_deg":51.8777,"raan_deg":355.1072,"arg_perigee_deg":201.6613,"mean_anomaly_deg":158.411,"bstar":0.00063956,"rev_number":414,"period_min":93.662998355553,"perigee_km":449.44714284565,"apogee_km":457.99653099417,"semimajor_km":6831.8588369199,"source":"CELESTRAK","updated_at":"2026-05-25T13:38:08.647929Z"}}